Location: 5810 Zion Rd, Cleves, OH 45002, USA
(39.1922°N, 84.7113°W)
Time: 06:48:40
(UTC-05:00)

Vanguard 3 - Pass Details

Date: 15 December 2019
Orbit: 507 x 3264 km, 33.4° (Epoch: 26 January)

Event Time Altitude Azimuth Distance (km) Brightness Sun altitude
Rises 05:40:20 0° 206° (SSW) 2,851 - -24.5°
Exits shadow 05:41:34 - 198° (SSW) 2,483 9.6 -24.2°
Reaches altitude 10° 05:42:56 10° 185° (S) 2,162 9.4 -24.0°
Maximum altitude 05:46:21 18° 142° (SE) 1,980 9.7 -23.3°
Drops below altitude 10° 05:50:54 10° 101° (E) 3,025 11.2 -22.5°
Sets 05:55:29 0° 85° (E) 4,545 12.3 -21.6°
